Location: Unspecified
(0.0000°N, 0.0000°E)
Time: 01:15:05
(UTC+00:00)

Tiros 8 - Pass Details

Date: 19 May 2026
Orbit: 640 x 662 km, 58.5° (Epoch: 10 June)

Event Time Altitude Azimuth Distance (km) Brightness Sun altitude
Rises 05:07:59 0° 346° (NNW) 2,938 12.1 -11.4°
Reaches altitude 10° 05:10:26 10° 355° (N) 2,028 11.4 -10.8°
Maximum altitude 05:14:41 35° 62° (ENE) 1,024 10.5 -9.8°
Drops below altitude 10° 05:18:54 10° 128° (SE) 2,028 11.7 -8.8°
Sets 05:21:21 0° 137° (SE) 2,937 12.4 -8.3°
